Content
SEND FEEDBACK

Daily
Averages
Monthly
Summary
United States of America

FINDLAY, OHIO


Home > North America > United States > Ohio
Elevation: 812 feet     Latitude: 41 01N     Longitude: 083 40W

WEATHER
 
SELECT A DAY
Number of Records: 185,433;   Date Range: 1/28/98 - 9/29/14
 
SHARE

PRINT THIS DATA

[ ← Previous Day ]
WEATHER ALMANAC - JANUARY 23, 2013
[ Next Day → ]
[ °C ]   °F
Weather ElementAverageHighLow
Temperature15.6 °F19.9 °F (3:53 pm)8.1 °F (4:53 am)
Dewpoint5.5 °F12.9 °F (9:53 pm)-2.9 °F (1:53 am)
Humidity65.4 %81 % (9:53 pm)44 % (3:53 pm)
Barometer30.19 in30.34 in (1:53 am)30.05 in (10:48 pm)
Wind Speed10.7 mph15 mph (11:53 am)
Weather ElementAverage
Visibility6.9 mi
Wind DirectionWSW (242.3 °)

Weather ElementTotal
Precipitation---
Heating Degree Days51 (Base 65)
Averaged from 31 records on January 23, 2013
WEATHER CONDITIONS BREAKOUT
WIND DIRECTION BREAKOUT
WEATHER BY HOUR - JANUARY 23, 2013
[ °C ]   °F
Local TimeTemperatureDewpointHumidityBarometerVisibilityWind DirectionWind SpeedGust SpeedPrecipitationEventsConditions
1:53 AM10.0 °F-2.9 °F56 %30.34 in10.0 miWest (260°)13.8 mphClear
2:53 AM10.0 °F-2.0 °F58 %30.34 in10.0 miWest (270°)11.5 mphClear
3:53 AM9.0 °F-2.0 °F61 %30.33 in10.0 miWSW (250°)10.4 mphClear
4:53 AM8.1 °F-0.9 °F67 %30.33 in10.0 miWSW (240°)6.9 mphClear
5:53 AM9.0 °F-0.9 °F64 %30.33 in10.0 miSW (230°)8.1 mphPartly Cloudy
6:53 AM10.9 °F0.0 °F61 %30.33 in10.0 miWSW (250°)10.4 mphOvercast
7:53 AM10.9 °F0.0 °F61 %30.32 in10.0 miWSW (250°)9.2 mphOvercast
8:53 AM12.0 °F0.0 °F59 %30.32 in10.0 miSW (230°)10.4 mphOvercast
9:53 AM12.9 °F-0.9 °F54 %30.31 in10.0 miSW (230°)11.5 mphOvercast
10:53 AM15.1 °F0.0 °F51 %30.31 in10.0 miSW (230°)11.5 mphOvercast
11:53 AM16.0 °F-0.9 °F47 %30.28 in10.0 miSW (230°)15.0 mphOvercast
12:53 PM17.1 °F1.0 °F50 %30.25 in10.0 miSW (230°)13.8 mphOvercast
1:53 PM18.0 °F1.9 °F50 %30.21 in10.0 miWSW (250°)12.7 mphOvercast
2:53 PM19.0 °F1.9 °F47 %30.19 in10.0 miWest (260°)12.7 mphOvercast
3:53 PM19.9 °F1.0 °F44 %30.17 in10.0 miWest (260°)12.7 mphOvercast
4:53 PM19.0 °F3.9 °F52 %30.16 in10.0 miSW (230°)10.4 mphOvercast
5:53 PM19.0 °F6.1 °F57 %30.16 in10.0 miWSW (240°)9.2 mphOvercast
6:43 PM17.6 °F10.4 °F73 %30.10 in3.0 miSW (230°)12.7 mph0.00 inSnowLight Snow
6:53 PM18.0 °F10.0 °F71 %30.15 in3.0 miWSW (240°)11.5 mph0.00 inSnowLight Snow
7:10 PM17.6 °F10.4 °F73 %30.09 in4.0 miSW (230°)10.4 mph0.00 inSnowLight Snow
7:53 PM17.1 °F10.9 °F77 %30.14 in6.0 miSW (230°)9.2 mph0.00 inSnowLight Snow
8:53 PM18.0 °F12.0 °F78 %30.12 in8.0 miSW (220°)9.2 mph0.00 inOvercast
9:30 PM17.6 °F12.2 °F79 %30.06 in2.5 miWSW (240°)9.2 mph0.00 inSnowLight Snow
9:50 PM17.6 °F12.2 °F79 %30.06 in1.8 miWSW (240°)8.1 mph0.00 inSnowLight Snow
9:53 PM18.0 °F12.9 °F81 %30.12 in2.0 miWSW (250°)8.1 mph0.00 inSnowLight Snow
10:13 PM17.6 °F12.2 °F79 %30.06 in1.5 miSW (230°)6.9 mph0.00 inSnowLight Snow
10:48 PM17.6 °F12.2 °F79 %30.05 in2.0 miWSW (250°)8.1 mph0.00 inSnowLight Snow
10:53 PM18.0 °F12.9 °F81 %30.10 in2.0 miWSW (240°)9.2 mph0.00 inSnowLight Snow
11:03 PM17.6 °F12.2 °F79 %30.05 in3.0 miWSW (250°)11.5 mph0.00 inSnowLight Snow
11:25 PM17.6 °F12.2 °F79 %30.05 in2.5 miWest (260°)12.7 mph0.00 inSnowLight Snow
11:53 PM18.0 °F12.9 °F81 %30.11 in2.0 miWest (260°)13.8 mph0.00 inSnowLight Snow
Hourly data recorded from KAOH, located miles away from Findlay, Ohio







STORIES FROM OUR PARTNERS